Regional Weather Roundup
Issued by NWS Newport/Morehead, NC

Current Version | Previous Version | Graphics & Text | Print | Product List | Glossary Off
Versions: 1 2 3 4 5 6 7 8 9 10 11 12 13 14 15 16 17 18 19 20 21 22 23 24 25 26 27 28 29 30 31 32 33 34 35 36 37 38 39 40 41 42 43 44 45 46 47 48 49 50
000 ASUS42 KMHX 170613 RWRMHX WEATHER ROUNDUP FOR EASTERN NORTH CAROLINA NATIONAL WEATHER SERVICE NEWPORT/MOREHEAD CITY NC 100 AM EST TUE JAN 17 2017 NOTE: "FAIR" INDICATES FEW OR NO CLOUDS BELOW 12,000 FEET WITH NO SIGNIFICANT WEATHER AND/OR OBSTRUCTIONS TO VISIBILITY NCZ015>017-031-032-045>047-102-103-170700- NORTH COAST CITY SKY/WX TMP DP RH WIND PRES REMARKS EDENTON CLOUDY 43 40 92 CALM 30.32S ELIZABETH CITY CLOUDY 38 36 92 CALM 30.31F KITTY HAWK NOT AVBL MANTEO PTCLDY 40 39 95 N3 30.30F $$ NCZ045>047-081-094-103-104-170700- CENTRAL COAST CITY SKY/WX TMP DP RH WIND PRES REMARKS FRISCO MOCLDY 47 43 86 N5 30.29F $$ NCZ095-097-098-100-101-170700- SOUTHERN COAST CITY SKY/WX TMP DP RH WIND PRES REMARKS BEAUFORT CLOUDY 48 43 82 N5 30.29F CEDAR ISLAND NOT AVBL JACKSONVILLE CLOUDY 49 47 93 NE3 30.29F PINEY ISLAND CLOUDY N/A N/A N/A N3 30.30S WILMINGTON CLOUDY 51 48 89 NE3 30.29F $$ NCZ011>013-027>030-043-044-078>080-089-090>093-098-170700- COASTAL PLAIN CITY SKY/WX TMP DP RH WIND PRES REMARKS AHOSKIE N/A 44 40 87 CALM 30.31F CLINTON MOCLDY 49 46 89 CALM 30.29F ELIZABETHTOWN CLOUDY 49 47 92 CALM 30.27F GOLDSBORO CLOUDY 50 47 88 CALM 30.27F GREENVILLE CLOUDY 46 45 93 CALM 30.31F HAVELOCK CLOUDY 47 43 86 CALM 30.31F KENANSVILLE CLOUDY 50 45 81 CALM 30.29F KINSTON CLOUDY 50 45 83 CALM 30.31F NEW BERN CLOUDY 46 43 89 CALM 30.31F RICHLANDS CLOUDY 47 45 93 CALM 30.30F ROCKY MOUNT CLOUDY 47 44 90 CALM 30.30F WASHINGTON CLOUDY 45 40 82 CALM 30.31F WHITEVILLE CLOUDY 49 47 92 CALM 30.27F $$ AMZ130-135-150-152-154-156-158-170-250-252-270-ANZ085-086-088-633-658-670-170700- MARINE OBSERVATIONS STATION/POSITION TIME TEMP WIND PRES WAVE SWELL AIR SEA DIR/SP/G HT/PER HT/PER (UTC) (F) (DEG/KT/KT) (MB) (FT/S) (FT/S) CHESAPEAKE LIGHT NOT AVBL 64 E VA BEACH 0550 54 58 360/ 8/ 10 1025.2 2/10 2/10 DUCK 0536 330/ 7/ 8 N/A 2 E DUCK 0600 44 N/A 2/ 8 OREGON INLET 0536 340/ 4/ 5 N/A 13E OREGON INLT NOT AVBL HATTERAS CG 0536 360/ 7/ 8 N/A DIAMOND BUOY 0550 56 73 360/ 10/ 12 1025.2 3/ 8 2/ 8 CAPE LOOKOUT 0600 49 30/ 4/ 4 1025.4 BEAUFORT LAB 0536 10/ 4/ 5 N/A 30 SE NEW RVR IN 0508 56 61 40/ 6/ 8 1026.1 30 SE NEW RVR IN 0543 61 N/A 3/ 8 27 SE WRIGHTSVLE 0508 60 68 70/ 6/ 10 1025.8 5 SE WRIGHTSVLE 0508 53 40/ 6/ 8 1026.0 225 S CAPE HAT 0550 70 72 180/ 12/ 14 1025.5 3/ 8 3/ 8 41 SE CHARLESTON 0550 70 70 70/ 6/ 8 1024.3 4/ 8 3/ 8 $$

USA.gov is the U.S. government's official web portal to all federal, state and local government web resources and services.